Regional Weather Roundup
Issued by NWS Portland, ME

Home | Current Version | Previous Version | Text Only | Print | Product List | Glossary On
Versions: 1 2 3 4 5 6 7 8 9 10 11 12 13 14 15 16 17 18 19 20 21 22 23 24 25 26 27 28 29 30 31 32 33 34 35 36 37 38 39 40 41 42 43 44 45 46 47 48 49 50
000
ASUS41 KGYX 220010
RWRGYX
WEATHER ROUNDUP FOR MAINE AND NEW HAMPSHIRE
NATIONAL WEATHER SERVICE GRAY ME
700 PM EST TUE FEB 21 2017

MEZ002-005-006-010-012-015-018-020-021-024-026-027-029-220100-
MAINE

CITY           SKY/WX    TMP DP  RH WIND       PRES   REMARKS
PORTLAND       CLOUDY    35  25  66 S7        30.20F
6HR MIN TEMP:  34; 6HR MAX TEMP:  35;

SANFORD        CLOUDY    33  25  72 CALM      30.19F
BAR HARBOR     CLOUDY    29  19  66 S7        30.21F
WISCASSET      CLOUDY    34  23  64 S3        30.21F
6HR MIN TEMP:  33; 6HR MAX TEMP:  40;

ROCKLAND       MOCLDY    32  21  64 CALM      30.21F
FRYEBURG       CLOUDY    36  22  56 S6        30.14F
6HR MIN TEMP:  36; 6HR MAX TEMP:  44;

LEWISTONAUBURN CLOUDY    32  24  72 S6        30.18F
AUGUSTA        CLOUDY    31  18  58 S7        30.17F
6HR MIN TEMP:  31; 6HR MAX TEMP:  39;

WATERVILLE     CLOUDY    34  18  51 S7        30.13F
BANGOR         MOCLDY    30  19  63 S9        30.17F
6HR MIN TEMP:  30; 6HR MAX TEMP:  37;

GREENVILLE       N/A     29  10  45 VRB5      30.03F
6HR MIN TEMP:  29; 6HR MAX TEMP:  35;

MILLINOCKET    CLOUDY    32   7  35 S3        30.12F
6HR MIN TEMP:  32; 6HR MAX TEMP:  38;

HOULTON        CLOUDY    31   6  35 S8        30.10F
PRESQUE ISLE   PTCLDY    30   9  41 SE10      30.08F
6HR MIN TEMP:  30; 6HR MAX TEMP:  35;

FRENCHVILLE    CLOUDY    28   8  43 SE13      30.01F WCI  17
6HR MIN TEMP:  26; 6HR MAX TEMP:  31;

CARIBOU        CLOUDY    29   8  41 S8        30.06F
6HR MIN TEMP:  26; 6HR MAX TEMP:  30;

$$

NHZ002-005-008-009-011-012-014-220100-
NEW HAMPSHIRE

CITY           SKY/WX    TMP DP  RH WIND       PRES   REMARKS
PORTSMOUTH     CLOUDY    35  27  71 SE8       30.18F
ROCHESTER      CLOUDY    34  24  67 SE6       30.17F
6HR MIN TEMP:  34; 6HR MAX TEMP:  42;

NASHUA         CLOUDY    37  27  67 SE6       30.16F
MANCHESTER     CLOUDY    38  24  57 SE10      30.14F
6HR MIN TEMP:  38; 6HR MAX TEMP:  44;

CONCORD        MOCLDY    36  24  62 SE8       30.15F
6HR MIN TEMP:  36; 6HR MAX TEMP:  42;

LACONIA        PTCLDY    36  23  59 MISG      30.14F
PLYMOUTH       FAIR      37  20  51 CALM      30.12F
BERLIN         CLOUDY    37  18  46 CALM      30.04F
6HR MIN TEMP:  35; 6HR MAX TEMP:  43;

WHITEFIELD     CLOUDY    37  16  42 CALM      30.04F
6HR MIN TEMP:  35; 6HR MAX TEMP:  42;

JAFFREY        CLOUDY    37  17  44 S3        30.13F
6HR MIN TEMP:  35; 6HR MAX TEMP:  42;

KEENE          CLOUDY    36  21  54 S6        30.15R
LEBANON        CLOUDY    38  20  48 CALM      30.11R
6HR MIN TEMP:  38; 6HR MAX TEMP:  43;

MT WASHINGTON  CLOUDY    28   5  37 SW38G47     N/A  WCI  11
6HR MIN TEMP:  27; 6HR MAX TEMP:  31;

$$

VTZ005-007-008-220100-
VERMONT

CITY           SKY/WX    TMP DP  RH WIND       PRES   REMARKS
ST JOHNSBURY     N/A     39  17  41 MISG      30.04F
MONTPELIER     CLOUDY    36  15  42 S10       30.09F
BURLINGTON     CLOUDY    40  19  43 S10G23    30.03R
$$

MAZ007-012-024-CTZ003-RIZ002-NYZ038-NYZ072-220100-
SOUTHERN NEW ENGLAND AND NY

CITY           SKY/WX    TMP DP  RH WIND       PRES   REMARKS
BOSTON         CLOUDY    38  29  70 SE9       30.20F
WORCESTER      CLOUDY    37  16  42 SW10      30.15F
NANTUCKET      PTCLDY    33  25  72 S6        30.25F
PROVIDENCE     CLOUDY    38  26  62 SW10      30.23F
HARTFORD       CLOUDY    40  24  53 S13       30.20R
ALBANY         CLOUDY    43  21  41 S15       30.11S
NEW YORK CITY  CLOUDY    44  31  60 S14       30.22S
$$

ANZ081-ANZ082-ANZ150-NHZ014-MEZ023>029-220100-
COASTAL MARINE OBSERVATIONS

STATION/POSITION TIME  TEMP    WIND        PRES    WAVE
                       AIR SEA DIR/SP/G            HT/PER
                 (UTC) (F)     (DEG/KT/KT) (MB)    (FT/S)
MOUNT DESERT ROC 0000   32                 1023.3F
MATINICUS ROCK   0000   33     200/ 10/ 11 1022.6F
ISLE OF SHOALS   0000   38     170/ 13/ 14 1022.6F
JEFFREYS LEDGE   2306      43                N/A     3/ 6
CASHES LEDGE BUO 2350   33 42              1023.6F   2/ 5
GEORGES BANK BUO 2350   35 43              1023.5F   5/ 8
$$

.............KEY..............
   WCI - WIND CHILL
   TC  - TEMPERATURE IN CELSIUS
   VSB - VISIBILITY IN MILES
   HX  - HEAT INDEX
   FAIR- INDICATES FEW OR NO CLOUDS BELOW 12,000 FT, WITH NO
         SIGNIFICANT WEATHER AND/OR OBSTRUCTIONS TO VISIBILITY.






USA.gov is the U.S. government's official web portal to all federal, state and local government web resources and services.